Regional Weather Roundup
Issued by NWS

Home | Current Version | Previous Version | Graphics & Text | Print | Product List | Glossary On
Versions: 1 2 3 4 5 6 7 8 9 10 11 12 13 14 15 16 17 18 19 20 21 22 23 24 25 26 27 28 29 30 31 32 33 34 35 36 37 38 39 40 41 42 43 44 45 46 47 48 49 50
343
ASUS43 KTOP 070408
RWRKS

WEATHER ROUNDUP FOR KANSAS
NATIONAL WEATHER SERVICE GOODLAND KS
1000 PM CST TUE DEC 06 2016

NOTE:  "FAIR" INDICATES FEW OR NO CLOUDS BELOW 12,000 FEET WITH NO
SIGNIFICANT WEATHER AND/OR OBSTRUCTIONS TO VISIBILITY.

KSZ001>006-013>018-027>032-041>047-070500-
NORTHWEST KANSAS

CITY           SKY/WX    TMP DP  RH WIND       PRES   REMARKS
GOODLAND       CLOUDY    24   2  38 SE6       29.98S
HAYS           CLOUDY    28  18  66 CALM      30.10R
HILL CITY      CLOUDY    23  11  60 N3        30.09R
RUSSELL        CLOUDY    29  16  58 SE5       30.09R
$$

KSZ061>065-074>080-084>089-070500-
SOUTHWEST KANSAS

CITY           SKY/WX    TMP DP  RH WIND       PRES   REMARKS
DODGE CITY     PTCLDY    26  12  55 SE6       30.06S
ELKHART          N/A     18   0  45 SE12        N/A  WCI   5
GARDEN CITY    CLEAR     22   7  52 SE9       30.02F
GREAT BEND     CLOUDY    30  19  63 CALM      30.10S
LIBERAL        CLOUDY    27   9  46 SE12      30.00F WCI  16
PRATT          CLOUDY    30  13  49 CALM      30.09S
$$

KSZ066>073-081>083-090>101-070500-
SOUTHEAST KANSAS

CITY           SKY/WX    TMP DP  RH WIND       PRES   REMARKS
CHANUTE        CLOUDY    30  24  78 CALM      30.15R
COFFEYVILLE    CLOUDY    34  21  59 NE5       30.15R
HUTCHINSON     CLOUDY    31  23  72 CALM      30.12R
MEDICINE LODGE   N/A     33  17  51 E3        30.11R
NEWTON         CLOUDY    32  16  51 NE6       30.11F
PARSONS        CLOUDY    34  19  54 NE3       30.15S
WICHITA INTL   CLOUDY    35  20  54 CALM      30.11S
WICHITA JABRA  CLOUDY    32  24  72 E5        30.10F
WICHITA MCCONL CLOUDY    35  15  43 E2        30.11S
WINFIELD       CLOUDY    34  18  52 NE7       30.12F
$$

KSZ007>012-019>026-033>040-048>060-102>105-070500-
NORTHEAST KANSAS

CITY           SKY/WX    TMP DP  RH WIND       PRES   REMARKS
CONCORDIA      CLOUDY    27  14  58 S3        30.13R
EMPORIA        CLOUDY    28  20  71 W3        30.13S
LAWRENCE       PTCLDY    26  20  77 NW3       30.15R
MANHATTAN      MOCLDY    25  20  81 CALM      30.13F
MARYSVILLE     PTCLDY    23  16  74 CALM      30.14S
OLATHE IND     PTCLDY    30  16  56 NW7       30.14R
OLATHE EXE     PTCLDY    31  14  49 NW7       30.13R
SALINA         MOCLDY    31  19  61 CALM      30.13F
TOPEKA BILLARD CLOUDY    27  19  72 CALM      30.14F
TOPEKA FORBES  PTCLDY    27  17  66 N5        30.13S
$$




USA.gov is the U.S. government's official web portal to all federal, state and local government web resources and services.